Change the Weather History Date:

Thursday, March 10, 2011

  Actual Average Record
Temperature  
Mean Temperature 58 °F -  
Max Temperature 69 °F 77 °F 82 °F (2003)
Min Temperature 46 °F 47 °F 39 °F (1998)
Degree Days  
Heating Degree Days 6    
Growing Degree Days 8 (Base 50)    
Moisture  
Dew Point 32 °F    
Average Humidity 42    
Maximum Humidity 62    
Minimum Humidity 23    
Precipitation  
Precipitation 0.00 in - - ()
Sea Level Pressure  
Sea Level Pressure 30.38 in    
Wind  
Wind Speed 9 mph ()    
Max Wind Speed 15 mph    
Max Gust Speed 26 mph    
Visibility 10.4 miles    
Events      
Averages and records for this station are not official NWS values.
T = Trace of Precipitation, MM = Missing Value Source: Averaged Metar Reports

Daily Weather History Graph

Daily Weather History Graph

Search for Another Location

Airport or City:

Trip Planner

Search our weather history database for the weather conditions in past years. The results will help you decide how hot, cold, wet, or windy it might be!

Date:

Astronomy

Mar. 10, 2011 Rise Set
Actual Time 6:49 AM CST 6:44 PM CST
Civil Twilight 6:27 AM CST 7:06 PM CST
Nautical Twilight 6:01 AM CST 7:32 PM CST
Astronomical Twilight 5:36 AM CST 7:57 PM CST
Moon 10:13 AM CST (3/10) 11:45 PM CST (3/10)
Length of Visible Light 12h 39m
Length of Day
11h 55m
Waxing Crescent, 28% of the Moon is Illuminated
Mar 10
Waxing Crescent
Mar 12
First Quarter
Mar 19
Full
Mar 26
Last Quarter
Apr 3
New

Hourly Weather History & Observations

Time (CST) Temp. Windchill Dew Point Humidity Pressure Visibility Wind Dir Wind Speed Gust Speed Precip Events Conditions
12:45 AM 53.6 °F - 30.2 °F 41% 30.47 in 12.0 mi North 12.7 mph 26.5 mph N/A   Scattered Clouds
1:47 AM 53.6 °F - 30.2 °F 41% 30.47 in 12.0 mi NNW 11.5 mph 23.0 mph N/A   Mostly Cloudy
2:51 AM 51.8 °F - 33.8 °F 50% 30.00 in 12.0 mi North 10.4 mph - N/A   Mostly Cloudy
3:46 AM 51.8 °F - 33.8 °F 50% 30.48 in 12.0 mi NNW 8.1 mph - N/A   Mostly Cloudy
4:47 AM 51.8 °F - 33.8 °F 50% 30.48 in 12.0 mi West 6.9 mph - N/A   Mostly Cloudy
5:51 AM 50.0 °F - 32.0 °F 50% 30.08 in 12.0 mi NNW 5.8 mph - N/A   Mostly Cloudy
6:21 AM 50.0 °F - 32.0 °F 50% 30.49 in 12.0 mi NNW 6.9 mph - N/A   Clear
6:45 AM 50.0 °F - 32.0 °F 50% 30.50 in 12.0 mi North 3.5 mph - N/A   Clear
7:22 AM 50.0 °F - 30.2 °F 47% 30.51 in 12.0 mi North 4.6 mph - N/A   Clear
7:45 AM 51.8 °F - 30.2 °F 44% 30.51 in 12.0 mi NNW 6.9 mph - N/A   Clear
8:20 AM 51.8 °F - 32.0 °F 47% 30.53 in 12.0 mi North 12.7 mph - N/A   Clear
8:49 AM 51.8 °F - 33.8 °F 50% 30.17 in 12.0 mi North 11.5 mph - N/A   Clear
9:21 AM 55.4 °F - 33.8 °F 44% 30.54 in 12.0 mi NNW 12.7 mph - N/A   Clear
9:23 AM 55.4 °F - 33.8 °F 44% 30.54 in 12.0 mi NNW 10.4 mph - N/A   Clear
9:47 AM 55.4 °F - 33.8 °F 44% 30.54 in 10.0 mi NNW 8.1 mph - N/A   Clear
10:46 AM 59.0 °F - 32.0 °F 36% 30.53 in 10.0 mi North 10.4 mph - N/A   Clear
10:49 AM 59.0 °F - 32.0 °F 36% 30.53 in 10.0 mi NW 11.5 mph - N/A   Clear
11:50 AM 60.8 °F - 32.0 °F 34% 30.12 in 10.0 mi NNW 13.8 mph - N/A   Clear
12:46 PM 64.4 °F - 32.0 °F 30% 30.48 in 8.0 mi North 8.1 mph - N/A   Clear
12:48 PM 64.4 °F - 32.0 °F 30% 30.48 in 8.0 mi North 4.6 mph - N/A   Clear
1:47 PM 68.0 °F - 32.0 °F 26% 30.43 in 8.0 mi North 9.2 mph - N/A   Clear
1:50 PM 68.0 °F - 32.0 °F 26% 30.43 in 8.0 mi NNW 9.2 mph - N/A   Clear
2:45 PM 69.8 °F - 30.2 °F 23% 30.00 in 10.0 mi North 12.7 mph - N/A   Partly Cloudy
3:49 PM 68.0 °F - 30.2 °F 24% 30.37 in 10.0 mi North 15.0 mph - N/A   Partly Cloudy
4:50 PM 66.2 °F - 32.0 °F 28% 30.36 in 10.0 mi North 15.0 mph - N/A   Partly Cloudy
5:51 PM 64.4 °F - 32.0 °F 30% 30.01 in 10.0 mi North 15.0 mph - N/A   Scattered Clouds
6:37 PM 60.8 °F - 32.0 °F 34% 30.38 in 10.0 mi North 12.7 mph - N/A   Mostly Cloudy
6:51 PM 59.0 °F - 32.0 °F 36% 30.39 in 8.0 mi North 12.7 mph - N/A   Scattered Clouds
7:45 PM 55.4 °F - 33.8 °F 44% 30.42 in 8.0 mi North 13.8 mph - N/A   Scattered Clouds
8:42 PM 51.8 °F - 33.8 °F 50% 30.45 in 8.0 mi North 11.5 mph - N/A   Scattered Clouds
8:46 PM 51.8 °F - 33.8 °F 50% 30.23 in 8.0 mi NNW 11.5 mph - N/A   Scattered Clouds
9:45 PM 50.0 °F - 33.8 °F 54% 30.48 in 10.0 mi North 8.1 mph - N/A   Partly Cloudy
10:45 PM 48.2 °F - 33.8 °F 58% 30.50 in 10.0 mi NNE 5.8 mph - N/A   Clear
11:49 PM 46.4 °F 42.9 °F 33.8 °F 62% 30.17 in 10.0 mi NE 6.9 mph - N/A   Clear